[Iaude] MPEC W12: 2016 VU5 [a=1.43,e=0.33,i=5.8,H=27.4]

mpec at si.edu mpec at si.edu
Thu Nov 17 22:29:28 EST 2016


M.P.E.C. 2016-W12                                Issued 2016 Nov. 18, 03:25 UT
 
     The Minor Planet Electronic Circulars contain information on unusual
         minor planets and routine data on comets.  They are published
    on behalf of Division F of the International Astronomical Union by the
          Minor Planet Center, Smithsonian Astrophysical Observatory,
                          Cambridge, MA 02138, U.S.A.

             Prepared using the Tamkin Foundation Computer Network

                              MPC at CFA.HARVARD.EDU
            URL http://www.minorplanetcenter.net/    ISSN 1523-6714


                                   2016 VU5
 
Observations:
     K16V05U* C2016 11 10.44725 04 37 17.57 +35 12 34.0          19.5 VqEW012G96
     K16V05U  C2016 11 10.45161 04 37 20.96 +35 09 59.5          19.6 VqEW012G96
     K16V05U  C2016 11 10.46031 04 37 27.83 +35 04 48.3          19.7 VqEW012G96
     K16V05U  C2016 11 10.47977 04 37 43.29 +34 53 12.3          19.8 VqEW012G96
     K16V05U  C2016 11 10.48019 04 37 43.57 +34 52 59.9          19.8 VqEW012G96
     K16V05U  C2016 11 10.48060 04 37 43.99 +34 52 43.2          19.8 VqEW012G96
     K16V05U  C2016 11 10.48101 04 37 44.25 +34 52 29.2          19.9 VqEW012G96
     K16V05U  C2016 11 11.45092 04 50 00.54 +27 03 38.2          19.2 VqEW012G96
     K16V05U  C2016 11 11.45134 04 50 00.72 +27 03 27.3          19.8 VqEW012G96
     K16V05U  C2016 11 11.45175 04 50 00.89 +27 03 17.1          19.9 VqEW012G96
     K16V05U  C2016 11 11.45217 04 50 01.05 +27 03 07.5                qEW012G96
     K16V05U KC2016 11 12.22367 04 56 47.95 +22 29 22.1          19.8 RoEW012291
     K16V05U KC2016 11 12.22544 04 56 48.42 +22 28 50.5          20.5 RoEW012291
     K16V05U KC2016 11 12.22723 04 56 49.08 +22 28 18.2          20.2 RoEW012291
     K16V05U  C2016 11 12.45560804 57 43.03 +21 20 27.8          19.6 GUEW012H01
     K16V05U  C2016 11 12.46172704 57 44.54 +21 18 39.8          20.0 GUEW012H01
     K16V05U  C2016 11 12.47011004 57 46.63 +21 16 11.8          19.8 GUEW012H01
     K16V05U  C2016 11 12.48563404 57 50.61 +21 11 38.2          20.0 GUEW012H01
     K16V05U  C2016 11 13.47942505 02 54.57 +17 08 24.6          19.7 GUEW012H01
     K16V05U  C2016 11 13.48837505 02 56.03 +17 06 28.5          20.4 GUEW012H01
     K16V05U  C2016 11 13.49320105 02 56.84 +17 05 26.0          20.9 GUEW012H01
     K16V05U  C2016 11 13.50076405 02 58.12 +17 03 48.0          20.4 GUEW012H01
 
Observer details:
291 LPL/Spacewatch II.  Observer T. H. Bressi.  1.8-m f/2.7 reflector + CCD.
G96 Mt. Lemmon Survey.  Observer R. G. Matheny.  Measurers E. J. Christensen,
    D. C. Fuls, A. R. Gibbs, A. D. Grauer, J. A. Johnson, R. A. Kowalski,
    S. M. Larson, G. J. Leonard, R. G. Matheny, R. L. Seaman, F. C. Shelly.
    1.5-m reflector + 10K CCD.
H01 Magdalena Ridge Observatory, Socorro.  Observers W. H. Ryan, E. V. Ryan.
    Measurer W. H. Ryan.  2.4-m f/8.9 reflector + CCD.
 
Orbital elements:
2016 VU5                                                 Earth MOID = 0.0108 AU
Epoch 2017 Feb. 16.0 TT = JDT 2457800.5                 MPC
M  73.27737              (2000.0)            P               Q
n   0.57842707     Peri.  144.03569     +0.96575125     -0.24753810
a   1.4266047      Node   230.48441     +0.20822534     +0.91822939
e   0.3261225      Incl.    5.78641     +0.15481195     +0.30915962
P   1.70           H   27.4           G   0.15           U   6
Residuals in seconds of arc
161110 G96 (0.7+  2.9-)   161111 G96  0.0   0.1+    161112 H01  0.1-  0.1-
161110 G96  0.1+  1.0-    161111 G96  0.1+  0.1+    161112 H01  0.0   0.2-
161110 G96  0.2+  0.4-    161111 G96  0.1-  0.9+    161113 H01  0.0   0.2+
161110 G96  0.1-  0.2-    161112 291  0.1+  0.2-    161113 H01  0.0   0.2+
161110 G96 (0.8-  2.4+)   161112 291  0.9-  0.1-    161113 H01  0.1+  0.2+
161110 G96  0.3+  0.3+    161112 291  0.8+  0.4-    161113 H01  0.0   0.2+
161110 G96  0.5-  1.0+    161112 H01  0.0   0.2-
161111 G96  0.1-  0.6+    161112 H01  0.0   0.1-

Ephemeris:
2016 VU5                 a,e,i = 1.43, 0.33, 6                   q = 0.9614
Date    TT    R. A. (2000) Decl.     Delta      r     Elong.  Phase     V
2016 10 19    17 33 31.1 +11 54 31   0.07802 0.9631    63.0   112.9    26.1
...
2016 11 03    18 06 07.8 +33 20 11   0.02115 0.9850    70.1   108.8    23.1
...
2016 11 11    04 45 25.5 +30 22 26   0.01686 1.0052   153.8    25.8    19.7
...
2016 11 17    05 12 09.5 +09 04 01   0.03884 1.0235   153.3    25.7    21.6
2016 11 18    05 13 29.4 +07 42 47   0.04276 1.0268   153.3    25.6    21.8
2016 11 19    05 14 31.3 +06 35 44   0.04672 1.0302   153.3    25.5    22.0
...
2016 11 25    05 17 09.1 +02 43 27   0.07114 1.0518   154.6    23.8    22.9
...
2016 12 03    05 16 43.7 +00 58 03   0.1056  1.0837   156.8    21.0    23.7
...
2016 12 18    05 14 44.8 +01 18 56   0.1789  1.1506   156.8    19.7    25.0

A. U. Tomatic                (C) Copyright 2016 MPC           M.P.E.C. 2016-W12




More information about the Iaude mailing list